When you browse on this site, cookies collect data to enhance your experience and personalize the content and advertising you see.
Visit our Privacy Policy to learn more. By continuing to use the site, you agree to this use of cookies and data.

Hourly Weather Sokolihino

Today, 4 July, Saturday

Time Temperature Precipitation Wind Pressure Humidity
00:00 +16°C° 0 mm 1 mps 739 mmHg 88%
01:00 +15°C° 0 mm 1 mps 739 mmHg 91%
02:00 +14°C° 0 mm 0 mps 739 mmHg 95%
03:00 +15°C° 0 mm 0 mps 739 mmHg 93%
04:00 +15°C° 0 mm 0 mps 739 mmHg 92%
05:00 +15°C° 0 mm 0 mps 739 mmHg 91%
06:00 +19°C° 0 mm 1 mps 739 mmHg 83%
07:00 +20°C° 0 mm 1 mps 740 mmHg 76%
08:00 +22°C° 0 mm 1 mps 740 mmHg 68%
09:00 +23°C° 0 mm 1 mps 740 mmHg 61%
10:00 +24°C° 0 mm 2 mps 740 mmHg 54%
11:00 +25°C° 0 mm 2 mps 740 mmHg 47%
12:00 +26°C° 0 mm 2 mps 740 mmHg 47%
13:00 +26°C° 0 mm 2 mps 740 mmHg 47%
14:00 +26°C° 0 mm 3 mps 740 mmHg 46%
15:00 +26°C° 0 mm 3 mps 740 mmHg 49%
16:00 +26°C° 0 mm 3 mps 740 mmHg 52%
17:00 +25°C° 0 mm 2 mps 740 mmHg 55%
18:00 +23°C° 0 mm 2 mps 740 mmHg 62%
19:00 +21°C° 0 mm 2 mps 740 mmHg 70%
20:00 +20°C° 0 mm 1 mps 740 mmHg 77%
21:00 +19°C° 0 mm 1 mps 740 mmHg 80%
22:00 +18°C° 0 mm 1 mps 740 mmHg 84%
23:00 +14°C° 0 mm 0 mps 740 mmHg 87%

Tomorrow, 5 July, Sunday

Time Temperature Precipitation Wind Pressure Humidity
00:00 +15°C° 0 mm 1 mps 740 mmHg 88%
01:00 +15°C° 0 mm 1 mps 740 mmHg 88%
02:00 +14°C° 0 mm 1 mps 740 mmHg 89%
03:00 +15°C° 0 mm 1 mps 740 mmHg 87%
04:00 +15°C° 0 mm 1 mps 739 mmHg 86%
05:00 +16°C° 0 mm 2 mps 739 mmHg 84%
06:00 +17°C° 0 mm 2 mps 739 mmHg 77%
07:00 +19°C° 0 mm 3 mps 739 mmHg 69%
08:00 +21°C° 0 mm 3 mps 739 mmHg 62%
09:00 +23°C° 0 mm 4 mps 739 mmHg 58%
10:00 +25°C° 0 mm 4 mps 739 mmHg 54%
11:00 +26°C° 0 mm 4 mps 739 mmHg 49%
12:00 +26°C° 0 mm 4 mps 739 mmHg 50%
13:00 +26°C° 0 mm 4 mps 738 mmHg 50%
14:00 +27°C° 0 mm 4 mps 738 mmHg 50%
15:00 +26°C° 0.1 mm 4 mps 738 mmHg 54%
16:00 +26°C° 0.1 mm 4 mps 737 mmHg 58%
17:00 +25°C° 0.1 mm 4 mps 737 mmHg 61%
18:00 +24°C° 0.2 mm 3 mps 737 mmHg 71%
19:00 +21°C° 0.2 mm 3 mps 737 mmHg 81%
20:00 +19°C° 0.2 mm 2 mps 737 mmHg 91%
21:00 +19°C° 0 mm 2 mps 737 mmHg 93%
22:00 +18°C° 0 mm 2 mps 737 mmHg 95%
23:00 +17°C° 0 mm 2 mps 736 mmHg 97%

Day after tomorrow, 6 July, Monday

Time Temperature Precipitation Wind Pressure Humidity
00:00 +17°C° 0 mm 3 mps 736 mmHg 97%
01:00 +17°C° 0 mm 3 mps 736 mmHg 98%
02:00 +17°C° 0 mm 3 mps 736 mmHg 98%
03:00 +17°C° 0 mm 3 mps 736 mmHg 97%
04:00 +17°C° 0 mm 3 mps 736 mmHg 97%
05:00 +18°C° 0 mm 3 mps 736 mmHg 96%
06:00 +19°C° 0 mm 3 mps 736 mmHg 89%
07:00 +21°C° 0 mm 4 mps 736 mmHg 83%
08:00 +22°C° 0 mm 4 mps 736 mmHg 77%
09:00 +23°C° 0.2 mm 4 mps 736 mmHg 74%
10:00 +25°C° 0.2 mm 4 mps 736 mmHg 71%
11:00 +26°C° 0.2 mm 4 mps 736 mmHg 68%
12:00 +25°C° 0.6 mm 4 mps 736 mmHg 75%
13:00 +24°C° 0.6 mm 3 mps 735 mmHg 81%
14:00 +22°C° 0.6 mm 3 mps 735 mmHg 88%
15:00 +22°C° 0.5 mm 3 mps 735 mmHg 88%
16:00 +23°C° 0.5 mm 2 mps 735 mmHg 89%
17:00 +23°C° 0.5 mm 2 mps 735 mmHg 90%
18:00 +21°C° 0.1 mm 2 mps 735 mmHg 91%
19:00 +20°C° 0.1 mm 2 mps 735 mmHg 93%
20:00 +21°C° 0.1 mm 1 mps 735 mmHg 95%
21:00 +20°C° 0.1 mm 1 mps 735 mmHg 96%
22:00 +20°C° 0.1 mm 1 mps 735 mmHg 96%
23:00 +20°C° 0.1 mm 1 mps 735 mmHg 97%

7 July, Tuesday

Time Temperature Precipitation Wind Pressure Humidity
00:00 +20°C° 0.6 mm 1 mps 735 mmHg 97%
01:00 +19°C° 0.6 mm 1 mps 735 mmHg 98%
02:00 +19°C° 0.6 mm 1 mps 735 mmHg 98%
03:00 +19°C° 0.4 mm 1 mps 735 mmHg 98%
04:00 +19°C° 0.4 mm 1 mps 735 mmHg 98%
05:00 +19°C° 0.4 mm 1 mps 735 mmHg 98%
06:00 +18°C° 0.1 mm 1 mps 735 mmHg 96%
07:00 +17°C° 0.1 mm 2 mps 735 mmHg 95%
08:00 +17°C° 0.1 mm 2 mps 735 mmHg 94%
09:00 +17°C° 0.6 mm 2 mps 736 mmHg 89%
10:00 +18°C° 0.6 mm 2 mps 736 mmHg 84%
11:00 +19°C° 0.6 mm 1 mps 736 mmHg 80%
12:00 +19°C° 0.1 mm 1 mps 736 mmHg 79%
13:00 +20°C° 0.1 mm 1 mps 736 mmHg 79%
14:00 +20°C° 0.1 mm 1 mps 736 mmHg 78%
15:00 +20°C° 0 mm 1 mps 736 mmHg 75%
16:00 +21°C° 0 mm 1 mps 736 mmHg 71%
17:00 +21°C° 0 mm 1 mps 737 mmHg 68%
18:00 +20°C° 0 mm 1 mps 737 mmHg 74%
19:00 +19°C° 0 mm 1 mps 737 mmHg 81%
20:00 +18°C° 0 mm 1 mps 737 mmHg 87%
21:00 +16°C° 0 mm 1 mps 737 mmHg 87%
22:00 +16°C° 0 mm 1 mps 737 mmHg 87%
23:00 +15°C° 0 mm 1 mps 737 mmHg 87%

8 July, Wednesday

Time Temperature Precipitation Wind Pressure Humidity
00:00 +15°C° 0.1 mm 1 mps 737 mmHg 87%
01:00 +15°C° 0.1 mm 2 mps 737 mmHg 86%
02:00 +15°C° 0.1 mm 2 mps 737 mmHg 85%
03:00 +14°C° 1.6 mm 2 mps 736 mmHg 89%
04:00 +13°C° 1.6 mm 3 mps 736 mmHg 93%
05:00 +12°C° 1.6 mm 3 mps 736 mmHg 97%
06:00 +12°C° 2 mm 3 mps 736 mmHg 97%
07:00 +12°C° 2 mm 3 mps 735 mmHg 97%
08:00 +12°C° 2 mm 3 mps 735 mmHg 97%
09:00 +12°C° 2.1 mm 3 mps 735 mmHg 97%
10:00 +12°C° 2.1 mm 3 mps 735 mmHg 97%
11:00 +12°C° 2.1 mm 3 mps 735 mmHg 97%
12:00 +12°C° 1.5 mm 3 mps 735 mmHg 97%
13:00 +12°C° 1.5 mm 3 mps 735 mmHg 96%
14:00 +13°C° 1.5 mm 2 mps 735 mmHg 96%
15:00 +14°C° 0.3 mm 2 mps 735 mmHg 92%
16:00 +15°C° 0.3 mm 1 mps 735 mmHg 89%
17:00 +15°C° 0.3 mm 0 mps 735 mmHg 85%
18:00 +15°C° 0.1 mm 1 mps 735 mmHg 88%
19:00 +14°C° 0.1 mm 1 mps 735 mmHg 91%
20:00 +14°C° 0.1 mm 1 mps 735 mmHg 93%
21:00 +13°C° 0 mm 1 mps 735 mmHg 94%
22:00 +12°C° 0 mm 1 mps 736 mmHg 95%
23:00 +10°C° 0 mm 2 mps 736 mmHg 96%

9 July, Thursday

Time Temperature Precipitation Wind Pressure Humidity
00:00 +10°C° 0 mm 2 mps 736 mmHg 96%
01:00 +10°C° 0 mm 2 mps 736 mmHg 97%
02:00 +9°C° 0 mm 2 mps 735 mmHg 97%
03:00 +9°C° 0 mm 2 mps 736 mmHg 97%
04:00 +9°C° 0 mm 2 mps 736 mmHg 97%
05:00 +10°C° 0 mm 3 mps 736 mmHg 97%
06:00 +11°C° 0 mm 3 mps 736 mmHg 91%
07:00 +13°C° 0 mm 3 mps 736 mmHg 84%
08:00 +14°C° 0 mm 3 mps 737 mmHg 78%
09:00 +17°C° 0 mm 3 mps 737 mmHg 69%
10:00 +18°C° 0 mm 3 mps 737 mmHg 60%
11:00 +19°C° 0 mm 3 mps 737 mmHg 51%
12:00 +20°C° 0 mm 4 mps 737 mmHg 49%
13:00 +21°C° 0 mm 4 mps 737 mmHg 47%
14:00 +21°C° 0 mm 4 mps 737 mmHg 45%
15:00 +20°C° 0.1 mm 4 mps 737 mmHg 50%
16:00 +19°C° 0.1 mm 4 mps 737 mmHg 56%
17:00 +17°C° 0.1 mm 4 mps 737 mmHg 61%
18:00 +17°C° 0 mm 3 mps 737 mmHg 67%
19:00 +16°C° 0 mm 3 mps 737 mmHg 73%
20:00 +15°C° 0 mm 2 mps 737 mmHg 80%
21:00 +14°C° 0 mm 2 mps 737 mmHg 86%
22:00 +12°C° 0 mm 2 mps 737 mmHg 91%
23:00 +10°C° 0 mm 2 mps 737 mmHg 97%
Show more